Regional Weather Roundup
Issued by NWS

Home | Current Version | Previous Version | Text Only | Print | Product List | Glossary Off
Versions: 1 2 3 4 5 6 7 8 9 10 11 12 13 14 15 16 17 18 19 20 21 22 23 24 25 26 27 28 29 30 31 32 33 34 35 36 37 38 39 40 41 42 43 44 45 46 47 48 49 50

000
ASUS43 KTOP 060859
RWRKS

WEATHER ROUNDUP FOR KANSAS
NATIONAL WEATHER SERVICE GOODLAND KS
400 AM CDT WED MAY 06 2015

NOTE:  "FAIR" INDICATES FEW OR NO CLOUDS BELOW 12,000 FEET WITH NO
SIGNIFICANT WEATHER AND/OR OBSTRUCTIONS TO VISIBILITY.

KSZ001>006-013>018-027>032-041>047-061000-
NORTHWEST KANSAS

CITY           SKY/WX    TMP DP  RH WIND       PRES   REMARKS
GOODLAND       CLOUDY    52  51  97 S18       29.73F
HAYS           CLOUDY    61  54  77 SE14      29.76F
HILL CITY      CLOUDY    61  59  93 SE14      29.76F
RUSSELL        LGT RAIN  62  60  93 SE16      29.76F
$$

KSZ061>065-074>080-084>089-061000-
SOUTHWEST KANSAS

CITY           SKY/WX    TMP DP  RH WIND       PRES   REMARKS
DODGE CITY     CLOUDY    56  53  90 S12       29.77F
ELKHART          N/A     49  44  83 S15         N/A
GARDEN CITY    PTCLDY    51  50  96 SE12      29.74F
GREAT BEND     CLOUDY    61  57  88 SE15      29.77F
LIBERAL        CLEAR     52  48  87 SE7       29.76F
$$

KSZ066>073-081>083-090>101-061000-
SOUTHEAST KANSAS

CITY           SKY/WX    TMP DP  RH WIND       PRES   REMARKS
CHANUTE        LGT RAIN  67  58  72 S17G24    29.92R
COFFEYVILLE    LGT RAIN  64  61  90 S14       29.95R
HUTCHINSON     LGT RAIN  62  59  90 SE12      29.77F
MEDICINE LODGE   N/A     61  61 100 S7        29.81R
NEWTON         CLOUDY    61  55  82 SE13      29.84F
PARSONS        LGT RAIN  64  61  90 S9G18     29.95R
WICHITA INTL   LGT RAIN  61  59  93 SE20      29.81F
WICHITA JABRA  LGT RAIN  61  61 100 SE12        N/A
WICHITA MCCONL LGT RAIN  61  61 100 SE13      29.83F
WINFIELD       RAIN      60  59  96 SE13      29.85F
$$

KSZ007>012-019>026-033>040-048>060-102>105-061000-
NORTHEAST KANSAS

CITY           SKY/WX    TMP DP  RH WIND       PRES   REMARKS
CONCORDIA      LGT RAIN  61  58  90 SE17G26   29.81F
EMPORIA        LGT RAIN  62  60  93 SE17G24   29.87F
LAWRENCE       LGT RAIN  65  59  81 SE8       29.92F
MANHATTAN      HVY RAIN  64  63  96 SE17G24   29.84F FOG
OLATHE IND     CLOUDY    67  56  67 SE15      29.94F
OLATHE EXE     CLOUDY    68  55  63 S15       29.94F
SALINA         LGT RAIN  62  60  93 SE12      29.81F
TOPEKA BILLARD LGT RAIN  64  61  90 SE8       29.90F
TOPEKA FORBES  LGT RAIN  65  60  84 SE10      29.90F
$$



USA.gov is the U.S. government's official web portal to all federal, state and local government web resources and services.